EW7152 Weather Reports


time (UTC)temp
F
wind
direction
speed
knots
gust
knots
rain 1hr
in
rain 24hr
in
rain mn
in
humidity
%
barometer
mb
20260510060016 66 74 0.0 9.6 0.00 0.01 0.01 56 1027.8
20260510054515 68 89 0.0 9.6 0.00 0.01 0.01 53 1027.8
20260510053016 68 90 0.0 3.5 0.00 0.01 0.01 43 1027.9
20260510051514 69 125 0.0 4.3 0.00 0.01 0.01 42 1028.0
20260510050013 69 304 0.0 2.6 0.00 0.01 0.01 44 1028.0
20260510044512 70 70 0.0 3.5 0.00 0.01 0.01 43 1028.0
20260510043019 70 70 0.9 4.3 0.00 0.01 0.01 43 1027.9
20260510041508 70 272 0.0 5.2 0.00 0.01 0.01 46 1027.7
20260510040008 68 154 0.9 3.5 0.00 0.01 0.01 47 1027.6
20260510034506 69 241 0.0 5.2 0.00 0.01 0.01 46 1027.6
20260510033004 69 279 1.7 6.1 0.00 0.01 0.01 46 1027.7
20260510031601 68 280 0.9 3.5 0.00 0.01 0.01 48 1027.7
20260510030058 67 118 0.0 4.3 0.00 0.01 0.01 50 1027.8
20260510024559 67 89 0.0 5.2 0.00 0.01 0.01 49 1028.2
20260510023055 67 122 0.0 0.9 0.00 0.01 0.01 49 1028.4
20260510021553 66 92 0.0 4.3 0.00 0.01 0.01 52 1028.7
20260510020051 65 272 0.0 6.1 0.00 0.01 0.01 52 1028.8
20260510014548 65 84 0.0 3.5 0.00 0.01 0.01 53 1029.1
20260510013051 64 150 0.0 6.1 0.00 0.01 0.01 54 1029.2
20260510011552 63 73 0.0 0.0 0.00 0.01 0.01 56 1029.4
20260510010039 61 132 0.0 0.0 0.00 0.01 0.01 58 1029.7
20260510004535 59 102 0.0 4.3 0.00 0.01 0.01 63 1029.9
20260510003055 56 81 0.0 4.3 0.00 0.01 0.01 67 1030.1
20260510001529 51 75 0.0 2.6 0.00 0.01 0.01 86 1030.2
20260510000023 49 72 0.0 0.9 0.00 0.01 0.01 92 1030.2
20260509234527 49 70 0.0 0.0 0.00 0.01 0.01 93 1030.2
20260509233021 46 70 0.0 0.9 0.00 0.01 0.01 93 1030.3
20260509231510 44 70 0.0 0.0 0.00 0.01 0.01 93 1030.4
20260509230012 40 70 0.0 0.0 0.01 0.01 0.01 93 1030.6
20260509224501 38 70 0.0 0.0 0.01 0.01 0.01 93 1030.7
20260509223101 35 70 0.0 0.0 0.01 0.01 0.01 92 1030.6
20260509221554 34 70 0.0 0.0 0.01 0.01 0.01 92 1030.5
20260509220051 31 70 0.0 0.0 0.00 0.00 0.00 89 1030.4
20260509214552 30 70 0.0 0.0 0.00 0.00 0.00 87 1030.2
20260509213047 29 70 0.0 0.0 0.00 0.00 0.00 86 1030.1
20260509211545 28 70 0.0 0.0 0.00 0.00 0.00 85 1029.9
20260509210049 28 70 0.0 0.0 0.00 0.00 0.00 85 1029.8
20260509204541 28 70 0.0 0.0 0.00 0.00 0.00 85 1029.7
20260509203039 28 70 0.0 0.0 0.00 0.00 0.00 85 1029.5
20260509201538 28 70 0.0 0.0 0.00 0.00 0.00 85 1029.5
20260509200040 28 70 0.0 0.0 0.00 0.00 0.00 85 1029.5
20260509194537 28 70 0.0 0.0 0.00 0.00 0.00 85 1029.3
20260509193032 28 70 0.0 0.0 0.00 0.00 0.00 85 1029.1
20260509191531 28 70 0.0 0.0 0.00 0.00 0.00 85 1029.0
20260509190028 28 70 0.0 0.0 0.00 0.00 0.00 85 1028.9
20260509184527 28 70 0.0 0.0 0.00 0.00 0.00 85 1028.7
20260509183027 28 70 0.0 0.0 0.00 0.00 0.00 85 1028.6
20260509181539 28 70 0.0 0.0 0.00 0.00 0.00 85 1028.5
20260509180021 28 70 0.0 0.0 0.00 0.00 0.00 85 1028.4
20260509174519 28 70 0.0 0.0 0.00 0.00 0.00 85 1028.3
20260509173023 29 70 0.0 0.0 0.00 0.00 0.00 85 1028.2
20260509171519 29 70 0.0 0.0 0.00 0.00 0.00 85 1028.2
20260509170014 29 70 0.0 0.0 0.00 0.00 0.00 86 1028.3
20260509164513 29 70 0.0 0.0 0.00 0.00 0.00 86 1028.3
20260509163010 29 70 0.0 0.0 0.00 0.00 0.00 86 1028.3
20260509161509 29 70 0.0 0.0 0.00 0.00 0.00 86 1028.3
20260509160009 30 70 0.0 0.0 0.00 0.00 0.00 86 1028.3
20260509154505 30 70 0.0 0.0 0.00 0.00 0.00 86 1028.3
20260509153003 30 70 0.0 0.0 0.00 0.00 0.00 86 1028.2
20260509151503 31 70 0.0 0.0 0.00 0.00 0.00 86 1028.3
20260509150059 31 70 0.0 0.0 0.00 0.00 0.00 86 1028.3
20260509144557 31 70 0.0 0.0 0.00 0.00 0.00 86 1028.3
20260509143058 31 70 0.0 0.0 0.00 0.00 0.00 86 1028.4
20260509141606 32 70 0.0 0.0 0.00 0.00 0.00 86 1028.3
20260509140058 32 70 0.0 0.0 0.00 0.00 0.00 86 1028.3
20260509134558 32 70 0.0 0.0 0.00 0.00 0.00 87 1028.4
20260509133051 32 70 0.0 0.0 0.00 0.00 0.00 88 1028.3
20260509131550 33 70 0.0 0.0 0.00 0.00 0.00 88 1028.2
20260509130052 33 70 0.0 0.0 0.00 0.00 0.00 88 1028.1
20260509124550 33 70 0.0 0.0 0.00 0.00 0.00 88 1028.1
20260509123052 34 70 0.0 0.0 0.00 0.00 0.00 88 1028.1
20260509121550 34 70 0.0 0.0 0.00 0.00 0.00 88 1028.1
20260509120053 35 70 0.0 0.0 0.00 0.00 0.00 88 1028.2
20260509114547 35 70 0.0 0.0 0.00 0.00 0.00 88 1028.1
20260509113046 36 70 0.0 0.0 0.00 0.00 0.00 87 1028.1
20260509111551 36 70 0.0 0.0 0.00 0.00 0.00 88 1028.0
20260509110044 37 70 0.0 0.0 0.00 0.00 0.00 88 1028.0
20260509104545 37 70 0.0 0.0 0.00 0.00 0.00 86 1028.0
20260509103044 38 70 0.0 0.0 0.00 0.00 0.00 85 1027.9
20260509101552 39 70 0.0 0.0 0.00 0.00 0.00 84 1027.8
20260509100043 39 70 0.0 0.0 0.00 0.00 0.00 84 1027.6
20260509094544 41 70 0.0 0.0 0.00 0.00 0.00 84 1027.6
20260509093052 42 70 0.0 0.0 0.00 0.00 0.00 82 1027.4
20260509091541 43 70 0.0 0.0 0.00 0.00 0.00 80 1027.1
20260509090041 45 70 0.0 0.0 0.00 0.00 0.00 78 1027.0
20260509084549 47 70 0.0 0.0 0.00 0.00 0.00 76 1026.8
20260509083039 49 70 0.0 0.0 0.00 0.00 0.00 73 1026.6
20260509081542 50 70 0.0 0.0 0.00 0.00 0.00 72 1026.4
20260509080050 52 70 0.0 0.0 0.00 0.00 0.00 71 1026.2
20260509074538 54 71 0.0 0.0 0.00 0.00 0.00 68 1025.9
20260509073039 57 71 0.0 0.0 0.00 0.00 0.00 63 1025.6
20260509071536 59 71 0.0 0.0 0.00 0.00 0.00 61 1025.4
20260509070039 60 41 0.0 0.9 0.00 0.00 0.00 59 1025.4
20260509064535 61 54 0.0 4.3 0.00 0.00 0.00 58 1025.2
20260509063034 62 353 0.0 0.0 0.00 0.00 0.00 56 1025.0
20260509061534 63 75 0.0 0.0 0.00 0.00 0.00 55 1024.7